Location: B?jaj?g
(11.7167°N, 92.6667°E)
Time: 16:35:56
(UTC+00:00)

Cosmos 1666 - Pass Details

Date: 18 September 2020
Orbit: 496 x 521 km, 82.5° (Epoch: 31 October)

Event Time Altitude Azimuth Distance (km) Brightness Sun altitude
Rises 22:26:11 0° 3° (N) 2,607 6.4 -18.5°
Reaches altitude 10° 22:28:21 10° 8° (N) 1,717 5.5 -18.0°
Maximum altitude 22:32:01 51° 85° (E) 635 3.5 -17.1°
Drops below altitude 10° 22:35:39 10° 162° (SSE) 1,703 5.5 -16.2°
Sets 22:37:47 0° 167° (SSE) 2,582 6.4 -15.7°
